| time (UTC) | temp F | wind direction | speed knots | gust knots | rain 1hr in | rain 24hr in | rain mn in | humidity % | barometer mb |
| 20260506070331 | 48 | 294 | 1.7 | 4.3 | 0.00 | 0.03 | 0.00 | 72 | 1013.2 |
| 20260506062353 | 48 | 358 | 0.0 | 1.7 | 0.00 | 0.03 | 0.00 | 68 | 1012.5 |
| 20260506061833 | 48 | 358 | 0.0 | 2.6 | 0.00 | 0.03 | 0.00 | 67 | 1012.5 |
| 20260506061341 | 48 | 358 | 1.7 | 2.6 | 0.00 | 0.03 | 0.00 | 69 | 1012.7 |
| 20260506060852 | 47 | 358 | 0.9 | 1.7 | 0.00 | 0.03 | 0.00 | 70 | 1012.7 |
| 20260506060333 | 48 | 358 | 0.9 | 1.7 | 0.00 | 0.03 | 0.00 | 69 | 1012.7 |
| 20260506051329 | 46 | 166 | 0.0 | 0.9 | 0.00 | 0.03 | 0.03 | 73 | 1011.7 |
| 20260506050835 | 45 | 166 | 0.0 | 0.9 | 0.00 | 0.03 | 0.03 | 75 | 1011.7 |
| 20260506050344 | 45 | 166 | 0.0 | 1.7 | 0.00 | 0.03 | 0.03 | 75 | 1011.7 |
| 20260506044849 | 45 | 166 | 0.0 | 0.9 | 0.00 | 0.03 | 0.03 | 76 | 1011.8 |
| 20260506044334 | 45 | 166 | 0.0 | 1.7 | 0.00 | 0.03 | 0.03 | 76 | 1011.9 |
| 20260506043830 | 45 | 166 | 0.9 | 1.7 | 0.00 | 0.03 | 0.03 | 75 | 1011.9 |
| 20260506043335 | 45 | 166 | 0.9 | 1.7 | 0.00 | 0.03 | 0.03 | 75 | 1011.9 |
| 20260506042840 | 45 | 166 | 0.0 | 1.7 | 0.00 | 0.03 | 0.03 | 75 | 1011.9 |
| 20260506042343 | 45 | 166 | 0.0 | 1.7 | 0.00 | 0.03 | 0.03 | 77 | 1011.9 |
| 20260506041845 | 44 | 166 | 0.9 | 1.7 | 0.00 | 0.03 | 0.03 | 77 | 1011.9 |
| 20260506041348 | 45 | 166 | 0.9 | 1.7 | 0.00 | 0.03 | 0.03 | 77 | 1012.3 |
| 20260506040832 | 45 | 166 | 0.9 | 1.7 | 0.00 | 0.03 | 0.03 | 78 | 1012.3 |
| 20260506040343 | 44 | 166 | 1.7 | 1.7 | 0.00 | 0.03 | 0.03 | 79 | 1012.3 |
| 20260506035847 | 44 | 166 | 0.9 | 1.7 | 0.00 | 0.03 | 0.03 | 78 | 1011.8 |
| 20260506035329 | 45 | 166 | 0.9 | 1.7 | 0.00 | 0.03 | 0.03 | 78 | 1011.8 |
| 20260506034838 | 45 | 166 | 0.0 | 0.9 | 0.00 | 0.03 | 0.03 | 78 | 1011.8 |
| 20260506034341 | 44 | 166 | 0.0 | 1.7 | 0.00 | 0.03 | 0.03 | 78 | 1012.2 |
| 20260506033843 | 44 | 166 | 0.9 | 1.7 | 0.00 | 0.03 | 0.03 | 78 | 1012.2 |
| 20260506033353 | 44 | 166 | 0.0 | 0.9 | 0.00 | 0.03 | 0.03 | 78 | 1012.2 |
| 20260506032838 | 45 | 166 | 0.0 | 1.7 | 0.00 | 0.03 | 0.03 | 77 | 1011.8 |
| 20260506032346 | 45 | 166 | 0.9 | 1.7 | 0.00 | 0.03 | 0.03 | 77 | 1011.8 |
| 20260506031912 | 45 | 166 | 0.0 | 0.9 | 0.00 | 0.03 | 0.03 | 78 | 1011.8 |
| 20260506031353 | 45 | 166 | 0.0 | 1.7 | 0.00 | 0.03 | 0.03 | 78 | 1011.6 |
| 20260506030856 | 45 | 166 | 0.0 | 1.7 | 0.00 | 0.03 | 0.03 | 78 | 1011.6 |
| 20260506030405 | 45 | 166 | 0.0 | 0.0 | 0.00 | 0.03 | 0.03 | 77 | 1011.6 |
| 20260506025856 | 45 | 166 | 0.0 | 0.0 | 0.00 | 0.03 | 0.03 | 77 | 1011.4 |
| 20260506025337 | 46 | 166 | 0.0 | 0.0 | 0.00 | 0.03 | 0.03 | 76 | 1011.4 |
| 20260506024842 | 46 | 166 | 0.0 | 0.0 | 0.00 | 0.03 | 0.03 | 77 | 1011.4 |
| 20260506024342 | 46 | 166 | 0.0 | 0.9 | 0.00 | 0.03 | 0.03 | 75 | 1011.7 |
| 20260506023843 | 47 | 166 | 0.0 | 1.7 | 0.00 | 0.03 | 0.03 | 75 | 1011.7 |
| 20260506023345 | 47 | 166 | 0.9 | 2.6 | 0.00 | 0.03 | 0.03 | 75 | 1011.7 |
| 20260506022856 | 47 | 166 | 0.9 | 2.6 | 0.00 | 0.03 | 0.03 | 75 | 1011.6 |
| 20260506022344 | 48 | 166 | 0.0 | 4.3 | 0.00 | 0.03 | 0.03 | 72 | 1011.6 |
| 20260506021856 | 48 | 175 | 1.7 | 4.3 | 0.00 | 0.03 | 0.03 | 71 | 1011.6 |
| 20260506021353 | 49 | 161 | 0.9 | 3.5 | 0.00 | 0.03 | 0.03 | 69 | 1011.1 |
| 20260506020855 | 49 | 156 | 0.9 | 5.2 | 0.00 | 0.03 | 0.03 | 69 | 1011.1 |
| 20260506020338 | 49 | 158 | 2.6 | 5.2 | 0.00 | 0.03 | 0.03 | 67 | 1011.1 |
| 20260506015842 | 50 | 157 | 0.9 | 6.1 | 0.00 | 0.03 | 0.03 | 66 | 1011.5 |
| 20260506015349 | 50 | 173 | 2.6 | 6.1 | 0.00 | 0.03 | 0.03 | 64 | 1011.5 |
| 20260506014830 | 51 | 181 | 3.5 | 6.1 | 0.00 | 0.03 | 0.03 | 63 | 1011.5 |
| 20260506014338 | 51 | 185 | 4.3 | 6.1 | 0.00 | 0.03 | 0.03 | 62 | 1010.8 |
| 20260506013856 | 51 | 146 | 2.6 | 6.1 | 0.00 | 0.03 | 0.03 | 61 | 1010.8 |
| 20260506013405 | 52 | 195 | 3.5 | 9.6 | 0.00 | 0.03 | 0.03 | 61 | 1010.8 |
| 20260506012846 | 52 | 211 | 5.2 | 9.6 | 0.00 | 0.03 | 0.03 | 60 | 1010.8 |
| 20260506012359 | 52 | 157 | 0.9 | 4.3 | 0.00 | 0.03 | 0.03 | 60 | 1010.8 |
| 20260506011848 | 52 | 152 | 3.5 | 5.2 | 0.00 | 0.03 | 0.03 | 60 | 1010.8 |
| 20260506011329 | 53 | 151 | 3.5 | 6.1 | 0.00 | 0.03 | 0.03 | 57 | 1010.8 |
| 20260506010856 | 53 | 138 | 3.5 | 6.1 | 0.00 | 0.03 | 0.03 | 58 | 1010.8 |
| 20260506010334 | 53 | 193 | 1.7 | 4.3 | 0.00 | 0.03 | 0.03 | 58 | 1010.8 |
| 20260506005904 | 54 | 200 | 2.6 | 6.1 | 0.00 | 0.03 | 0.03 | 59 | 1010.8 |
| 20260506005351 | 53 | 127 | 2.6 | 6.1 | 0.00 | 0.03 | 0.03 | 57 | 1010.8 |
| 20260506004859 | 53 | 140 | 1.7 | 6.1 | 0.00 | 0.03 | 0.03 | 57 | 1010.8 |
| 20260506004410 | 54 | 140 | 2.6 | 5.2 | 0.00 | 0.03 | 0.03 | 55 | 1010.8 |
| 20260506003845 | 55 | 165 | 3.5 | 5.2 | 0.00 | 0.03 | 0.03 | 58 | 1010.8 |
| 20260506003344 | 53 | 138 | 0.0 | 5.2 | 0.00 | 0.03 | 0.03 | 58 | 1010.8 |
| 20260506002913 | 54 | 138 | 4.3 | 5.2 | 0.00 | 0.03 | 0.03 | 58 | 1010.7 |
| 20260506002332 | 54 | 155 | 1.7 | 4.3 | 0.00 | 0.03 | 0.03 | 56 | 1010.7 |
| 20260506001848 | 54 | 180 | 2.6 | 4.3 | 0.00 | 0.03 | 0.03 | 57 | 1010.7 |
| 20260506001411 | 53 | 146 | 1.7 | 4.3 | 0.00 | 0.03 | 0.03 | 60 | 1010.9 |
| 20260506000854 | 52 | 137 | 0.9 | 4.3 | 0.00 | 0.03 | 0.03 | 60 | 1010.9 |
| 20260506000338 | 52 | 123 | 0.9 | 4.3 | 0.00 | 0.03 | 0.03 | 59 | 1010.9 |
| 20260505235907 | 52 | 129 | 2.6 | 4.3 | 0.00 | 0.03 | 0.03 | 60 | 1010.9 |
| 20260505235355 | 53 | 133 | 1.7 | 4.3 | 0.00 | 0.03 | 0.03 | 59 | 1010.9 |
| 20260505234831 | 52 | 158 | 2.6 | 4.3 | 0.00 | 0.03 | 0.03 | 61 | 1010.9 |
| 20260505234339 | 52 | 169 | 3.5 | 4.3 | 0.00 | 0.03 | 0.03 | 59 | 1010.9 |
| 20260505233848 | 52 | 171 | 2.6 | 4.3 | 0.00 | 0.03 | 0.03 | 61 | 1010.9 |
| 20260505233330 | 53 | 187 | 0.0 | 4.3 | 0.00 | 0.03 | 0.03 | 60 | 1010.9 |
| 20260505232900 | 52 | 140 | 0.9 | 2.6 | 0.00 | 0.03 | 0.03 | 61 | 1011.0 |
| 20260505232350 | 52 | 148 | 0.0 | 4.3 | 0.00 | 0.03 | 0.03 | 61 | 1011.0 |
| 20260505231834 | 52 | 145 | 0.0 | 5.2 | 0.00 | 0.03 | 0.03 | 59 | 1011.0 |
| 20260505231345 | 52 | 158 | 1.7 | 6.1 | 0.00 | 0.03 | 0.03 | 60 | 1011.1 |
| 20260505230830 | 52 | 137 | 4.3 | 6.1 | 0.00 | 0.03 | 0.03 | 60 | 1011.1 |
| 20260505230337 | 52 | 168 | 2.6 | 4.3 | 0.00 | 0.03 | 0.03 | 59 | 1011.1 |
| 20260505225850 | 52 | 173 | 2.6 | 4.3 | 0.00 | 0.03 | 0.03 | 60 | 1011.6 |
| 20260505225353 | 51 | 158 | 0.9 | 5.2 | 0.00 | 0.03 | 0.03 | 58 | 1011.6 |
| 20260505224855 | 51 | 138 | 2.6 | 5.2 | 0.00 | 0.03 | 0.03 | 61 | 1011.6 |
| 20260505224338 | 51 | 141 | 3.5 | 7.8 | 0.00 | 0.03 | 0.03 | 60 | 1011.3 |
| 20260505223854 | 51 | 140 | 4.3 | 7.8 | 0.00 | 0.03 | 0.03 | 60 | 1011.3 |
| 20260505223338 | 52 | 131 | 0.9 | 5.2 | 0.00 | 0.03 | 0.03 | 61 | 1011.3 |
| 20260505222849 | 52 | 260 | 2.6 | 5.2 | 0.00 | 0.03 | 0.03 | 57 | 1011.9 |
| 20260505222349 | 51 | 206 | 2.6 | 4.3 | 0.00 | 0.03 | 0.03 | 61 | 1011.9 |
| 20260505221832 | 51 | 244 | 0.0 | 2.6 | 0.00 | 0.03 | 0.03 | 63 | 1011.9 |
| 20260505221341 | 51 | 5 | 0.0 | 2.6 | 0.00 | 0.03 | 0.03 | 63 | 1012.2 |
| 20260505220913 | 51 | 72 | 0.0 | 1.7 | 0.00 | 0.03 | 0.03 | 59 | 1012.2 |
| 20260505220335 | 51 | 72 | 0.0 | 2.6 | 0.00 | 0.03 | 0.03 | 58 | 1012.2 |
| 20260505215845 | 50 | 72 | 0.0 | 2.6 | 0.00 | 0.03 | 0.03 | 60 | 1011.5 |
| 20260505215330 | 50 | 177 | 0.0 | 2.6 | 0.00 | 0.03 | 0.03 | 61 | 1011.5 |
| 20260505214857 | 50 | 177 | 0.0 | 2.6 | 0.00 | 0.03 | 0.03 | 57 | 1011.5 |
| 20260505214359 | 50 | 177 | 0.9 | 3.5 | 0.00 | 0.03 | 0.03 | 58 | 1012.3 |
| 20260505213842 | 50 | 177 | 0.9 | 3.5 | 0.00 | 0.03 | 0.03 | 60 | 1012.3 |
| 20260505213353 | 50 | 129 | 0.9 | 3.5 | 0.00 | 0.03 | 0.03 | 60 | 1012.3 |
| 20260505212842 | 50 | 158 | 0.9 | 3.5 | 0.00 | 0.03 | 0.03 | 61 | 1012.0 |
| 20260505212351 | 50 | 138 | 2.6 | 3.5 | 0.00 | 0.03 | 0.03 | 63 | 1012.0 |
| 20260505211835 | 51 | 165 | 1.7 | 2.6 | 0.00 | 0.03 | 0.03 | 61 | 1012.0 |
| 20260505211339 | 51 | 225 | 0.0 | 3.5 | 0.00 | 0.03 | 0.03 | 59 | 1011.9 |
| 20260505210843 | 51 | 145 | 0.0 | 4.3 | 0.00 | 0.03 | 0.03 | 57 | 1011.9 |
| 20260505210346 | 51 | 154 | 2.6 | 7.0 | 0.00 | 0.03 | 0.03 | 61 | 1011.9 |
| 20260505205831 | 51 | 140 | 1.7 | 7.8 | 0.00 | 0.03 | 0.03 | 59 | 1012.0 |
| 20260505205341 | 51 | 129 | 3.5 | 7.8 | 0.00 | 0.03 | 0.03 | 59 | 1012.0 |
| 20260505204852 | 51 | 165 | 0.0 | 7.8 | 0.00 | 0.03 | 0.03 | 58 | 1012.0 |
| 20260505204335 | 52 | 178 | 1.7 | 7.8 | 0.00 | 0.03 | 0.03 | 57 | 1012.0 |
| 20260505203841 | 52 | 88 | 0.9 | 6.1 | 0.00 | 0.03 | 0.03 | 57 | 1012.0 |
| 20260505203345 | 52 | 136 | 3.5 | 6.1 | 0.00 | 0.03 | 0.03 | 59 | 1012.0 |
| 20260505202847 | 52 | 84 | 3.5 | 5.2 | 0.00 | 0.03 | 0.03 | 57 | 1012.0 |
| 20260505202331 | 51 | 125 | 1.7 | 6.1 | 0.00 | 0.03 | 0.03 | 58 | 1012.0 |
| 20260505201841 | 51 | 138 | 3.5 | 6.1 | 0.00 | 0.03 | 0.03 | 58 | 1012.0 |
| 20260505201349 | 51 | 136 | 1.7 | 5.2 | 0.00 | 0.03 | 0.03 | 60 | 1012.4 |
| 20260505200856 | 50 | 75 | 1.7 | 5.2 | 0.00 | 0.03 | 0.03 | 62 | 1012.4 |
| 20260505200351 | 50 | 106 | 2.6 | 5.2 | 0.00 | 0.03 | 0.03 | 61 | 1012.4 |
| 20260505195851 | 50 | 111 | 2.6 | 5.2 | 0.00 | 0.03 | 0.03 | 62 | 1012.5 |
| 20260505195355 | 50 | 96 | 2.6 | 5.2 | 0.00 | 0.03 | 0.03 | 62 | 1012.5 |
| 20260505194857 | 50 | 146 | 0.9 | 5.2 | 0.00 | 0.03 | 0.03 | 64 | 1012.5 |
| 20260505194352 | 49 | 169 | 0.9 | 5.2 | 0.00 | 0.03 | 0.03 | 64 | 1012.5 |
| 20260505193845 | 49 | 102 | 1.7 | 5.2 | 0.00 | 0.03 | 0.03 | 64 | 1012.5 |
| 20260505193353 | 49 | 119 | 3.5 | 6.1 | 0.00 | 0.03 | 0.03 | 64 | 1012.5 |
| 20260505192849 | 49 | 124 | 0.9 | 6.1 | 0.00 | 0.03 | 0.03 | 64 | 1012.8 |
| 20260505192350 | 49 | 156 | 2.6 | 6.1 | 0.00 | 0.03 | 0.03 | 65 | 1012.8 |
| 20260505191832 | 49 | 121 | 0.0 | 5.2 | 0.00 | 0.03 | 0.03 | 65 | 1012.8 |
| 20260505191346 | 49 | 133 | 0.9 | 5.2 | 0.00 | 0.03 | 0.03 | 65 | 1012.4 |
| 20260505190855 | 49 | 85 | 0.9 | 6.1 | 0.00 | 0.03 | 0.03 | 66 | 1012.4 |
| 20260505190402 | 50 | 119 | 3.5 | 6.1 | 0.00 | 0.03 | 0.03 | 64 | 1012.4 |
| 20260505185903 | 49 | 161 | 0.9 | 5.2 | 0.00 | 0.03 | 0.03 | 65 | 1012.4 |
| 20260505185343 | 49 | 141 | 3.5 | 6.1 | 0.00 | 0.03 | 0.03 | 65 | 1012.4 |
| 20260505184843 | 49 | 145 | 3.5 | 6.1 | 0.00 | 0.03 | 0.03 | 67 | 1012.4 |
| 20260505184350 | 48 | 146 | 2.6 | 8.7 | 0.00 | 0.03 | 0.03 | 65 | 1012.4 |
| 20260505183831 | 48 | 177 | 4.3 | 8.7 | 0.00 | 0.03 | 0.03 | 67 | 1012.4 |
| 20260505183339 | 48 | 132 | 5.2 | 8.7 | 0.00 | 0.03 | 0.03 | 68 | 1012.4 |
| 20260505182849 | 48 | 154 | 3.5 | 9.6 | 0.00 | 0.03 | 0.03 | 70 | 1012.8 |
| 20260505182346 | 48 | 141 | 4.3 | 9.6 | 0.00 | 0.03 | 0.03 | 69 | 1012.8 |
| 20260505181854 | 47 | 163 | 4.3 | 9.6 | 0.00 | 0.03 | 0.03 | 71 | 1012.8 |
| 20260505181355 | 47 | 142 | 5.2 | 9.6 | 0.00 | 0.03 | 0.03 | 70 | 1012.5 |
| 20260505180904 | 47 | 158 | 4.3 | 9.6 | 0.00 | 0.03 | 0.03 | 70 | 1012.5 |
| 20260505180351 | 47 | 196 | 2.6 | 9.6 | 0.00 | 0.03 | 0.03 | 70 | 1012.5 |
| 20260505175852 | 47 | 154 | 4.3 | 9.6 | 0.00 | 0.03 | 0.03 | 70 | 1012.6 |
| 20260505175417 | 48 | 170 | 2.6 | 9.6 | 0.00 | 0.03 | 0.03 | 70 | 1012.6 |
| 20260505174855 | 48 | 146 | 0.9 | 6.1 | 0.00 | 0.03 | 0.03 | 69 | 1012.6 |
| 20260505174354 | 48 | 129 | 1.7 | 7.8 | 0.00 | 0.03 | 0.03 | 70 | 1012.5 |
| 20260505173905 | 48 | 164 | 3.5 | 9.6 | 0.00 | 0.03 | 0.03 | 72 | 1012.5 |
| 20260505173330 | 48 | 123 | 4.3 | 8.7 | 0.00 | 0.03 | 0.03 | 74 | 1012.5 |
| 20260505172906 | 47 | 128 | 4.3 | 9.6 | 0.00 | 0.03 | 0.03 | 74 | 1012.8 |
| 20260505172351 | 47 | 125 | 4.3 | 9.6 | 0.00 | 0.03 | 0.03 | 75 | 1012.8 |
| 20260505171851 | 47 | 121 | 3.5 | 8.7 | 0.00 | 0.03 | 0.03 | 78 | 1012.8 |
| 20260505171350 | 46 | 145 | 4.3 | 7.8 | 0.00 | 0.03 | 0.03 | 77 | 1012.6 |
| 20260505170830 | 46 | 140 | 5.2 | 7.8 | 0.00 | 0.03 | 0.03 | 78 | 1012.6 |
| 20260505170340 | 46 | 152 | 1.7 | 10.4 | 0.00 | 0.03 | 0.03 | 75 | 1012.6 |
| 20260505165849 | 46 | 117 | 4.3 | 10.4 | 0.00 | 0.03 | 0.03 | 74 | 1012.6 |
| 20260505165347 | 46 | 143 | 4.3 | 8.7 | 0.00 | 0.03 | 0.03 | 75 | 1012.6 |
| 20260505164850 | 46 | 169 | 3.5 | 8.7 | 0.00 | 0.03 | 0.03 | 75 | 1012.6 |
| 20260505164351 | 46 | 139 | 5.2 | 8.7 | 0.00 | 0.03 | 0.03 | 77 | 1012.9 |
| 20260505163833 | 46 | 122 | 4.3 | 9.6 | 0.00 | 0.03 | 0.03 | 77 | 1012.9 |
| 20260505163350 | 45 | 136 | 5.2 | 9.6 | 0.00 | 0.03 | 0.03 | 78 | 1012.9 |
| 20260505162856 | 45 | 170 | 7.0 | 9.6 | 0.00 | 0.03 | 0.03 | 78 | 1012.9 |
| 20260505162336 | 45 | 163 | 4.3 | 8.7 | 0.00 | 0.03 | 0.03 | 78 | 1012.9 |
| 20260505161901 | 45 | 136 | 4.3 | 9.6 | 0.00 | 0.03 | 0.03 | 79 | 1012.9 |
| 20260505161343 | 45 | 152 | 4.3 | 11.3 | 0.00 | 0.03 | 0.03 | 79 | 1012.5 |
| 20260505160846 | 45 | 169 | 7.8 | 11.3 | 0.00 | 0.03 | 0.03 | 79 | 1012.5 |
| 20260505160354 | 45 | 132 | 5.2 | 10.4 | 0.00 | 0.03 | 0.03 | 80 | 1012.5 |
| 20260505153340 | 45 | 159 | 3.5 | 8.7 | 0.01 | 0.03 | 0.03 | 80 | 1012.1 |
| 20260505152850 | 45 | 71 | 1.7 | 9.6 | 0.01 | 0.03 | 0.03 | 79 | 1012.0 |
| 20260505152332 | 45 | 177 | 2.6 | 7.8 | 0.01 | 0.03 | 0.03 | 81 | 1012.0 |
| 20260505151849 | 45 | 162 | 2.6 | 7.8 | 0.01 | 0.03 | 0.03 | 79 | 1012.0 |
| 20260505151355 | 45 | 100 | 4.3 | 7.8 | 0.02 | 0.03 | 0.03 | 79 | 1011.9 |
| 20260505150918 | 45 | 117 | 2.6 | 13.0 | 0.02 | 0.03 | 0.03 | 78 | 1011.9 |
| 20260505150356 | 45 | 102 | 7.8 | 13.0 | 0.02 | 0.03 | 0.03 | 77 | 1011.9 |
| 20260505140343 | 46 | 78 | 2.6 | 7.8 | 0.01 | 0.01 | 0.01 | 75 | 1011.9 |
| 20260505124917 | 50 | 140 | 2.6 | 8.7 | 0.00 | 0.00 | 0.00 | 65 | 1010.7 |
| 20260505124338 | 50 | 152 | 1.7 | 8.7 | 0.00 | 0.00 | 0.00 | 64 | 1010.4 |
| 20260505123848 | 49 | 96 | 1.7 | 5.2 | 0.00 | 0.00 | 0.00 | 64 | 1010.4 |
| 20260505123332 | 50 | 98 | 2.6 | 5.2 | 0.00 | 0.00 | 0.00 | 63 | 1010.4 |
| 20260505122845 | 50 | 148 | 2.6 | 5.2 | 0.00 | 0.00 | 0.00 | 63 | 1010.5 |
| 20260505122330 | 49 | 144 | 3.5 | 5.2 | 0.00 | 0.00 | 0.00 | 64 | 1010.5 |
| 20260505121836 | 49 | 106 | 2.6 | 5.2 | 0.00 | 0.00 | 0.00 | 64 | 1010.5 |
| 20260505121404 | 50 | 140 | 3.5 | 5.2 | 0.00 | 0.00 | 0.00 | 64 | 1010.4 |
| 20260505120848 | 50 | 164 | 1.7 | 4.3 | 0.00 | 0.00 | 0.00 | 66 | 1010.4 |
| 20260505120331 | 50 | 86 | 2.6 | 4.3 | 0.00 | 0.00 | 0.00 | 66 | 1010.4 |
| 20260505115909 | 50 | 69 | 2.6 | 5.2 | 0.00 | 0.00 | 0.00 | 67 | 1010.6 |
| 20260505115332 | 50 | 67 | 2.6 | 6.1 | 0.00 | 0.00 | 0.00 | 67 | 1010.6 |
| 20260505114840 | 50 | 72 | 2.6 | 7.8 | 0.00 | 0.00 | 0.00 | 66 | 1010.6 |
| 20260505114344 | 50 | 119 | 1.7 | 7.8 | 0.00 | 0.00 | 0.00 | 66 | 1010.6 |
| 20260505113846 | 50 | 122 | 3.5 | 7.8 | 0.00 | 0.00 | 0.00 | 66 | 1010.6 |
| 20260505113328 | 50 | 102 | 3.5 | 7.8 | 0.00 | 0.00 | 0.00 | 67 | 1010.6 |
| 20260505112842 | 50 | 127 | 2.6 | 7.8 | 0.00 | 0.00 | 0.00 | 67 | 1010.6 |
| 20260505112352 | 50 | 86 | 3.5 | 7.0 | 0.00 | 0.00 | 0.00 | 68 | 1010.6 |
| 20260505111903 | 50 | 98 | 2.6 | 5.2 | 0.00 | 0.00 | 0.00 | 69 | 1010.6 |
| 20260505111406 | 50 | 88 | 1.7 | 4.3 | 0.00 | 0.00 | 0.00 | 70 | 1010.9 |
| 20260505110915 | 50 | 126 | 2.6 | 5.2 | 0.00 | 0.00 | 0.00 | 72 | 1010.9 |
| 20260505110336 | 50 | 116 | 2.6 | 5.2 | 0.00 | 0.00 | 0.00 | 72 | 1010.9 |
| 20260505101836 | 50 | 141 | 3.5 | 8.7 | 0.00 | 0.00 | 0.00 | 77 | 1011.0 |
| 20260505101345 | 50 | 127 | 5.2 | 8.7 | 0.00 | 0.00 | 0.00 | 75 | 1010.6 |
| 20260505100844 | 50 | 121 | 1.7 | 6.1 | 0.00 | 0.00 | 0.00 | 71 | 1010.6 |
| 20260505100347 | 51 | 136 | 1.7 | 6.1 | 0.00 | 0.00 | 0.00 | 69 | 1010.6 |
| 20260505095852 | 51 | 71 | 1.7 | 4.3 | 0.00 | 0.00 | 0.00 | 67 | 1010.6 |
| 20260505095355 | 51 | 92 | 1.7 | 3.5 | 0.00 | 0.00 | 0.00 | 68 | 1010.6 |
| 20260505094838 | 51 | 119 | 1.7 | 3.5 | 0.00 | 0.00 | 0.00 | 70 | 1010.6 |
| 20260505094348 | 51 | 125 | 1.7 | 7.8 | 0.00 | 0.00 | 0.00 | 70 | 1010.8 |
| 20260505093837 | 51 | 152 | 1.7 | 7.8 | 0.00 | 0.00 | 0.00 | 74 | 1010.8 |
| 20260505093343 | 51 | 182 | 2.6 | 4.3 | 0.00 | 0.00 | 0.00 | 68 | 1010.8 |
| 20260505092849 | 51 | 131 | 0.0 | 3.5 | 0.00 | 0.00 | 0.00 | 67 | 1010.7 |
| 20260505092331 | 52 | 144 | 0.0 | 3.5 | 0.00 | 0.00 | 0.00 | 66 | 1010.7 |
| 20260505091902 | 52 | 146 | 1.7 | 3.5 | 0.00 | 0.00 | 0.00 | 65 | 1010.7 |
| 20260505091356 | 52 | 160 | 1.7 | 3.5 | 0.00 | 0.00 | 0.00 | 63 | 1010.5 |
| 20260505090839 | 52 | 154 | 0.9 | 2.6 | 0.00 | 0.00 | 0.00 | 63 | 1010.5 |
| 20260505090349 | 52 | 154 | 0.9 | 2.6 | 0.00 | 0.00 | 0.00 | 61 | 1010.5 |
| 20260505085845 | 52 | 153 | 0.9 | 2.6 | 0.00 | 0.00 | 0.00 | 61 | 1010.5 |
| 20260505085347 | 52 | 153 | 0.0 | 3.5 | 0.00 | 0.00 | 0.00 | 60 | 1010.5 |
| 20260505084848 | 52 | 151 | 0.0 | 3.5 | 0.00 | 0.00 | 0.00 | 60 | 1010.5 |
| 20260505084351 | 52 | 148 | 0.9 | 7.8 | 0.00 | 0.00 | 0.00 | 61 | 1010.4 |
| 20260505083832 | 52 | 164 | 0.9 | 7.8 | 0.00 | 0.00 | 0.00 | 61 | 1010.4 |
| 20260505083342 | 52 | 96 | 2.6 | 6.1 | 0.00 | 0.00 | 0.00 | 63 | 1010.4 |
| 20260505082851 | 52 | 99 | 2.6 | 6.1 | 0.00 | 0.00 | 0.00 | 62 | 1010.7 |
| 20260505082347 | 51 | 140 | 2.6 | 5.2 | 0.00 | 0.00 | 0.00 | 67 | 1010.7 |
| 20260505081831 | 51 | 126 | 1.7 | 3.5 | 0.00 | 0.00 | 0.00 | 69 | 1010.7 |
| 20260505081340 | 51 | 112 | 0.0 | 5.2 | 0.00 | 0.00 | 0.00 | 70 | 1011.2 |
| 20260505080841 | 51 | 118 | 0.9 | 5.2 | 0.00 | 0.00 | 0.00 | 71 | 1011.2 |
| 20260505080354 | 51 | 113 | 2.6 | 10.4 | 0.00 | 0.00 | 0.00 | 71 | 1011.2 |
| 20260505075832 | 51 | 68 | 0.9 | 10.4 | 0.00 | 0.00 | 0.00 | 71 | 1011.2 |
| 20260505075345 | 50 | 138 | 1.7 | 6.1 | 0.00 | 0.00 | 0.00 | 75 | 1011.2 |
| 20260505074855 | 50 | 150 | 2.6 | 6.1 | 0.00 | 0.00 | 0.00 | 76 | 1011.2 |
| 20260505074354 | 50 | 167 | 1.7 | 6.1 | 0.00 | 0.00 | 0.00 | 77 | 1011.4 |
| 20260505073835 | 50 | 127 | 3.5 | 7.0 | 0.00 | 0.00 | 0.00 | 79 | 1011.4 |
| 20260505073405 | 50 | 139 | 3.5 | 7.0 | 0.00 | 0.00 | 0.00 | 78 | 1011.4 |
| 20260505072854 | 50 | 148 | 2.6 | 6.1 | 0.00 | 0.00 | 0.00 | 82 | 1011.5 |
| 20260505072404 | 50 | 144 | 4.3 | 7.0 | 0.00 | 0.00 | 0.00 | 81 | 1011.5 |
| 20260505071850 | 50 | 122 | 1.7 | 7.8 | 0.00 | 0.00 | 0.00 | 81 | 1011.5 |
| 20260505071347 | 50 | 123 | 3.5 | 7.8 | 0.00 | 0.00 | 0.00 | 81 | 1011.2 |
| 20260505070848 | 50 | 104 | 3.5 | 8.7 | 0.00 | 0.00 | 0.00 | 80 | 1011.2 |